TimeEDT,TemperatureF,Dew PointF,Humidity,Sea Level PressureIn,VisibilityMPH,Wind Direction,Wind SpeedMPH,Gust SpeedMPH,PrecipitationIn,Events,Conditions,WindDirDegrees,DateUTC
12:53 AM,62.1,60.1,93,29.99,7.0,NE,4.6,-,N/A,,Clear,40,2013-04-30 04:53:00
1:02 AM,62.6,60.8,94,29.99,7.0,ENE,4.6,-,N/A,,Partly Cloudy,60,2013-04-30 05:02:00
1:10 AM,60.8,59.0,94,29.99,1.8,NE,4.6,-,N/A,,Mostly Cloudy,50,2013-04-30 05:10:00
1:19 AM,60.8,60.8,100,29.99,0.5,Calm,Calm,-,N/A,Fog,Fog,0,2013-04-30 05:19:00
1:53 AM,62.1,60.1,93,29.98,0.2,Calm,Calm,-,N/A,Fog,Fog,0,2013-04-30 05:53:00
2:15 AM,62.6,60.8,94,29.99,0.5,ESE,4.6,-,N/A,Fog,Fog,110,2013-04-30 06:15:00
2:53 AM,62.1,61.0,96,29.99,0.5,SSE,4.6,-,N/A,Fog,Fog,150,2013-04-30 06:53:00
3:12 AM,62.6,60.8,94,29.99,1.2,SE,3.5,-,N/A,,Overcast,130,2013-04-30 07:12:00
3:24 AM,62.6,60.8,94,29.99,2.0,Calm,Calm,-,N/A,,Overcast,0,2013-04-30 07:24:00
3:35 AM,62.6,60.8,94,29.99,6.0,Calm,Calm,-,N/A,,Overcast,0,2013-04-30 07:35:00
3:53 AM,62.1,61.0,96,29.99,5.0,Calm,Calm,-,N/A,,Overcast,0,2013-04-30 07:53:00
4:34 AM,62.6,60.8,94,30.00,1.8,SE,3.5,-,N/A,,Overcast,130,2013-04-30 08:34:00
4:53 AM,62.1,61.0,96,30.00,0.8,Calm,Calm,-,N/A,,Mist,0,2013-04-30 08:53:00
5:53 AM,62.1,60.1,93,30.01,1.0,NE,3.5,-,N/A,,Mist,40,2013-04-30 09:53:00
6:09 AM,62.6,60.8,94,30.02,3.0,NNE,4.6,-,N/A,,Overcast,20,2013-04-30 10:09:00
6:22 AM,62.6,60.8,94,30.03,1.8,North,4.6,-,N/A,,Overcast,10,2013-04-30 10:22:00
6:44 AM,62.6,60.8,94,30.03,3.0,North,4.6,-,N/A,,Overcast,10,2013-04-30 10:44:00
6:53 AM,62.1,60.1,93,30.03,3.0,NNE,3.5,-,N/A,,Overcast,20,2013-04-30 10:53:00
7:00 AM,62.6,60.8,94,30.04,1.8,NE,3.5,-,N/A,,Overcast,40,2013-04-30 11:00:00
7:11 AM,62.6,60.8,94,30.04,3.0,NNE,5.8,-,N/A,,Overcast,20,2013-04-30 11:11:00
7:24 AM,62.6,60.8,94,30.05,2.0,NE,4.6,-,N/A,,Overcast,40,2013-04-30 11:24:00
7:42 AM,62.6,60.8,94,30.05,4.0,NE,6.9,-,N/A,,Overcast,40,2013-04-30 11:42:00
7:53 AM,62.1,60.1,93,30.05,4.0,NNE,4.6,-,N/A,,Overcast,20,2013-04-30 11:53:00
8:02 AM,62.6,60.8,94,30.05,1.0,NNE,5.8,-,N/A,,Overcast,30,2013-04-30 12:02:00
8:53 AM,63.0,61.0,93,30.06,1.0,NE,8.1,-,N/A,,Overcast,40,2013-04-30 12:53:00
9:00 AM,62.6,60.8,94,30.06,10.0,NNE,6.9,-,N/A,,Overcast,30,2013-04-30 13:00:00
9:53 AM,64.9,60.1,84,30.06,10.0,NE,10.4,-,N/A,,Overcast,50,2013-04-30 13:53:00
10:49 AM,66.2,60.8,83,30.07,10.0,NNE,8.1,-,N/A,,Overcast,30,2013-04-30 14:49:00
10:53 AM,66.0,61.0,84,30.07,10.0,NE,6.9,-,N/A,,Overcast,40,2013-04-30 14:53:00
11:53 AM,66.9,62.1,84,30.07,10.0,North,8.1,-,N/A,,Overcast,10,2013-04-30 15:53:00
12:53 PM,66.9,61.0,81,30.07,10.0,NE,6.9,-,N/A,,Overcast,40,2013-04-30 16:53:00
1:53 PM,70.0,61.0,73,30.06,10.0,ENE,3.5,-,N/A,,Overcast,70,2013-04-30 17:53:00
2:25 PM,73.4,60.8,65,30.06,10.0,East,8.1,-,N/A,,Scattered Clouds,100,2013-04-30 18:25:00
2:53 PM,73.9,61.0,64,30.04,10.0,ENE,8.1,-,N/A,,Scattered Clouds,70,2013-04-30 18:53:00
3:53 PM,75.9,61.0,60,30.02,10.0,Calm,Calm,-,N/A,,Scattered Clouds,0,2013-04-30 19:53:00
4:53 PM,78.1,61.0,56,30.02,10.0,Variable,3.5,-,N/A,,Mostly Cloudy,0,2013-04-30 20:53:00
5:53 PM,77.0,59.0,54,30.03,10.0,NE,4.6,-,N/A,,Clear,40,2013-04-30 21:53:00
6:53 PM,73.9,62.1,66,30.05,10.0,North,5.8,-,N/A,,Overcast,10,2013-04-30 22:53:00
7:53 PM,70.0,63.0,78,30.07,7.0,NE,10.4,-,0.06,Rain,Light Rain,50,2013-04-30 23:53:00
8:53 PM,68.0,61.0,78,30.10,10.0,NE,15.0,-,0.00,,Overcast,50,2013-05-01 00:53:00
9:53 PM,64.9,60.1,84,30.12,10.0,NE,9.2,-,N/A,,Mostly Cloudy,40,2013-05-01 01:53:00
10:53 PM,64.0,57.9,80,30.14,10.0,NE,6.9,-,N/A,,Partly Cloudy,40,2013-05-01 02:53:00
11:53 PM,62.1,57.0,84,30.13,10.0,NE,6.9,-,N/A,,Clear,40,2013-05-01 03:53:00